Weather History for KPOB - December, 2013

Change the Weather History Date:

Thursday, December 26, 2013

  Actual Average Record
Temperature  
Mean Temperature 40 °F -  
Max Temperature 50 °F 50 °F 78 °F (1987)
Min Temperature 31 °F 30 °F 9 °F (1983)
Degree Days  
Heating Degree Days 24    
Moisture  
Dew Point 27 °F    
Average Humidity 68    
Maximum Humidity 93    
Minimum Humidity 44    
Precipitation  
Precipitation 0.00 in - - ()
Sea Level Pressure  
Sea Level Pressure 30.35 in    
Wind  
Wind Speed 2 mph (North)    
Max Wind Speed 6 mph    
Max Gust Speed -    
Visibility 10 miles    
Events Rain    
Averages and records for this station are not official NWS values.
T = Trace of Precipitation, MM = Missing Value Source: NWS Daily Summary

Daily Weather History Graph

Daily Weather History Graph

Search for Another Location

Airport or City:

Trip Planner

Search our weather history database for the weather conditions in past years. The results will help you decide how hot, cold, wet, or windy it might be!

Date:

Astronomy

Dec. 26, 2013 Rise Set
Actual Time 7:22 AM EST 5:10 PM EST
Civil Twilight 6:54 AM EST 5:39 PM EST
Nautical Twilight 6:22 AM EST 6:10 PM EST
Astronomical Twilight 5:51 AM EST 6:41 PM EST
Moon 12:59 AM EST (12/26) 12:36 PM EST (12/26)
Length of Visible Light 10h 44m
Length of Day
9h 47m
Last Quarter, 38% of the Moon is Illuminated
Dec 26
Last Quarter
Jan 1
New
Jan 7
First Quarter
Jan 15
Full
Jan 24
Last Quarter

Hourly Weather History & Observations

Time (EST) Temp. Windchill Dew Point Humidity Pressure Visibility Wind Dir Wind Speed Gust Speed Precip Events Conditions
12:58 AM 32.9 °F - 22.3 °F 65% 30.40 in 10.0 mi North 2.3 mph - N/A   Overcast
1:58 AM 33.6 °F - 23.4 °F 66% 30.39 in 10.0 mi North 1.2 mph - N/A   Overcast
2:58 AM 34.3 °F - 23.9 °F 66% 30.38 in 10.0 mi NNE 2.3 mph - N/A   Overcast
3:50 AM 35.6 °F 32.8 °F 24.8 °F 65% 30.34 in 10.0 mi North 3.5 mph - N/A   Light Drizzle
3:58 AM 34.9 °F - 24.6 °F 66% 30.35 in 10.0 mi NE 1.2 mph - 0.00 in   Light Drizzle
3:59 AM 35.6 °F - 24.8 °F 65% 30.33 in 10.0 mi NE 1.2 mph - N/A   Overcast
4:58 AM 35.6 °F - 24.8 °F 65% 30.34 in 10.0 mi Calm Calm - 0.00 in   Overcast
5:22 AM 35.6 °F - 24.8 °F 65% 30.33 in 10.0 mi North 1.2 mph - N/A Rain Light Rain
5:55 AM 35.6 °F - 26.6 °F 70% 30.35 in 10.0 mi NNW 2.3 mph - N/A   Overcast
5:58 AM 35.6 °F - 26.4 °F 69% 30.37 in 10.0 mi NW 2.3 mph - 0.00 in   Overcast
6:58 AM 36.3 °F - 27.0 °F 69% 30.36 in 10.0 mi Calm Calm - N/A   Overcast
7:58 AM 36.5 °F - 27.7 °F 70% 30.36 in 10.0 mi Calm Calm - N/A   Overcast
8:58 AM 38.1 °F 35.7 °F 27.7 °F 66% 30.38 in 10.0 mi North 3.5 mph - N/A   Overcast
9:32 AM 39.2 °F 35.9 °F 26.6 °F 61% 30.36 in 10.0 mi NNW 4.6 mph - N/A Rain Light Rain
9:46 AM 37.4 °F 32.8 °F 26.6 °F 65% 30.36 in 10.0 mi North 5.8 mph - N/A   Overcast
9:49 AM 37.4 °F 34.9 °F 28.4 °F 70% 30.36 in 10.0 mi North 3.5 mph - N/A   Light Drizzle
9:58 AM 37.9 °F 34.4 °F 28.2 °F 68% 30.38 in 10.0 mi North 4.6 mph - 0.00 in   Light Drizzle
10:02 AM 37.4 °F - 28.4 °F 70% 30.36 in 10.0 mi North 2.3 mph - N/A   Overcast
10:58 AM 38.7 °F 35.2 °F 26.4 °F 61% 30.38 in 10.0 mi NNW 4.6 mph - 0.00 in   Overcast
11:58 AM 39.7 °F - 27.0 °F 60% 30.35 in 10.0 mi Variable 2.3 mph - N/A   Overcast
12:58 PM 43.7 °F - 26.4 °F 51% 30.32 in 10.0 mi Variable 2.3 mph - N/A   Mostly Cloudy
1:58 PM 46.8 °F - 27.0 °F 46% 30.29 in 10.0 mi NNW 2.3 mph - N/A   Overcast
2:58 PM 48.6 °F - 27.3 °F 44% 30.27 in 10.0 mi Variable 2.3 mph - N/A   Partly Cloudy
3:58 PM 50.7 °F - 30.0 °F 45% 30.27 in 10.0 mi SSW 2.3 mph - N/A   Scattered Clouds
4:58 PM 48.6 °F - 31.3 °F 51% 30.28 in 10.0 mi Calm Calm - N/A   Scattered Clouds
5:58 PM 39.9 °F - 32.7 °F 75% 30.31 in 10.0 mi Calm Calm - N/A   Clear
6:58 PM 35.6 °F - 32.4 °F 88% 30.32 in 10.0 mi Calm Calm - N/A   Clear
7:58 PM 34.2 °F - 31.8 °F 91% 30.34 in 10.0 mi Calm Calm - N/A   Clear
8:58 PM 33.1 °F - 30.6 °F 90% 30.35 in 10.0 mi Calm Calm - N/A   Clear
9:58 PM 32.5 °F - 30.2 °F 91% 30.36 in 10.0 mi Calm Calm - N/A   Clear
10:58 PM 31.1 °F - 29.3 °F 93% 30.38 in 10.0 mi WSW 2.3 mph - N/A   Clear
11:58 PM 32.7 °F - 29.3 °F 87% 30.39 in 10.0 mi Calm Calm - N/A   Clear